GFSNIL_prec_snow24_252.txt.gz
Snowfall_Accumulation
0.0 0.0 0.0 0.0 0.0 0.0 0.0 0.0 0.0 0.0 0.0 0.0 0.0 0.0 0.0 0.0 0.0 0.0 0.0 0.0 0.0 0.0
0.6 0.8 0.9 0.0 0.0 0.0 0.0 0.0 0.0 0.0 0.0 0.0 0.0 0.0 0.0 0.0 0.0 0.0 0.0 0.0 0.0 0.0
0.9 1.1 1.0 1.1 0.0 0.0 0.6 0.0 0.0 0.0 0.0 0.0 0.0 0.0 0.0 0.0 0.0 0.0 0.0 0.0 0.0 0.0
0.5 0.2 1.0 0.8 0.5 0.5 0.0 0.0 1.0 0.0 0.0 0.0 0.0 0.0 0.0 0.0 0.0 0.0 0.0 0.0 0.0 0.0
1.3 0.9 0.2 0.9 0.7 0.5 0.0 0.0 0.0 1.7 0.0 0.0 0.0 0.0 0.0 0.0 0.0 0.0 0.0 0.0 0.0 0.0
0.9 1.2 0.6 0.0 0.0 0.8 0.7 0.0 1.3 1.9 1.9 0.0 0.0 0.0 0.0 0.0 0.0 0.0 0.0 0.0 0.0 0.0
0.4 0.4 0.4 0.1 0.0 1.5 1.0 0.4 0.8 1.0 1.4 1.0 0.0 0.0 0.0 0.0 0.0 0.0 0.0 0.0 0.0 0.0
0.0 0.5 0.2 0.0 0.0 0.0 1.6 1.2 0.4 1.0 0.9 0.9 0.0 0.0 0.0 0.0 0.0 0.0 0.0 0.0 0.0 0.0
0.0 0.0 0.6 0.2 0.3 0.0 0.0 1.1 0.0 1.1 0.8 0.8 0.0 0.0 0.0 0.0 0.0 0.0 0.0 0.0 0.0 0.0
0.2 0.0 0.0 0.3 0.3 0.2 0.4 0.6 0.2 0.9 0.8 0.5 0.0 0.0 0.0 0.0 0.0 0.0 0.0 0.0 0.0 0.0
0.6 0.0 0.0 0.3 0.3 0.2 0.2 0.6 0.9 0.8 0.5 0.4 0.0 0.0 0.0 0.0 0.0 0.0 0.0 0.0 0.0 0.0
0.1 0.0 0.0 0.2 0.2 0.2 0.6 0.4 0.5 0.5 0.3 0.1 0.0 0.0 0.0 0.0 0.0 0.0 0.0 0.0 0.0 0.0
0.7 1.1 0.5 0.3 0.1 0.1 0.6 0.5 0.4 0.3 0.2 0.1 0.0 0.0 0.0 0.0 0.0 0.0 0.0 0.0 0.0 0.0
1.5 1.5 0.9 1.4 0.3 0.5 0.5 0.5 0.3 0.3 0.1 0.0 0.0 0.0 0.0 0.0 0.0 0.0 0.0 0.0 0.0 0.0

GFSNIL_prec_snow24_255.txt.gz
Snowfall_Accumulation
0.0 0.0 0.0 0.0 0.0 0.0 0.0 0.0 0.0 0.0 0.0 0.0 0.0 0.0 0.0 0.0 0.0 0.0 0.0 0.0 0.0 0.0
0.6 0.8 0.9 0.0 0.0 0.0 0.0 0.0 0.0 0.0 0.0 0.0 0.0 0.0 0.0 0.0 0.0 0.0 0.0 0.0 0.0 0.0
0.9 1.1 1.0 1.1 0.0 0.0 0.6 0.0 0.0 0.0 0.0 0.0 0.0 0.0 0.0 0.0 0.0 0.0 0.0 0.0 0.0 0.0
0.5 0.2 1.0 0.8 0.5 0.5 0.0 0.0 1.0 0.0 0.0 0.0 0.0 0.0 0.0 0.0 0.0 0.0 0.0 0.0 0.0 0.0
1.3 0.9 0.2 0.9 0.7 0.5 0.0 0.0 0.0 1.7 0.0 0.0 0.0 0.0 0.0 0.0 0.0 0.0 0.0 0.0 0.0 0.0
0.9 1.2 0.6 0.0 0.0 0.8 0.7 0.0 1.3 1.9 1.9 0.0 0.0 0.0 0.0 0.0 0.0 0.0 0.0 0.0 0.0 0.0
0.4 0.4 0.4 0.1 0.0 1.5 1.0 0.4 0.8 1.0 1.4 1.0 0.0 0.0 1.5 0.0 0.0 0.0 0.0 0.0 0.0 0.0
0.0 0.5 0.2 0.0 0.0 0.0 1.6 1.2 0.4 1.0 0.9 0.9 0.0 0.0 1.9 0.0 0.0 0.0 0.0 0.0 0.0 0.0
0.0 0.0 0.6 0.2 0.3 0.0 0.0 1.1 0.0 1.1 0.8 0.8 0.0 0.0 1.5 0.0 0.0 0.0 0.0 0.0 0.0 0.0
0.2 0.0 0.0 0.3 0.3 0.2 0.4 0.6 0.2 0.9 0.8 0.5 0.0 0.0 1.0 0.0 0.0 0.0 0.0 0.0 0.0 0.0
0.6 0.0 0.0 0.3 0.3 0.2 0.2 0.7 0.9 0.8 0.5 0.4 0.0 0.0 1.3 0.0 0.0 0.0 0.0 0.0 0.0 0.0
0.1 0.0 0.0 0.2 0.2 0.2 0.6 0.5 0.5 0.5 0.3 0.1 0.0 0.0 0.8 1.4 0.0 0.0 0.0 0.0 0.0 0.0
0.7 1.2 0.6 0.3 0.1 0.1 0.7 0.6 0.4 0.6 0.2 0.1 0.5 0.0 0.7 0.8 0.0 0.0 0.0 0.0 0.0 0.0
1.6 1.7 1.0 1.5 0.3 0.7 0.7 0.8 0.6 0.7 0.1 0.9 0.6 0.4 0.4 0.0 0.0 0.0 0.0 0.0 0.0 0.0

GFSNIL_prec_snow24_258.txt.gz
Snowfall_Accumulation
0.0 0.0 0.0 0.0 0.0 0.0 0.0 0.0 0.0 0.0 0.0 0.0 0.0 0.0 0.0 0.0 0.0 0.0 0.0 0.0 0.0 0.0
0.6 0.8 0.9 0.0 0.0 0.0 0.0 0.0 0.0 0.0 0.0 0.0 0.0 0.0 0.0 0.0 0.0 0.0 0.0 0.0 0.0 0.0
0.9 1.1 1.0 1.1 0.0 0.0 0.6 0.0 0.0 0.0 0.0 0.0 0.0 0.0 0.0 0.0 0.0 0.0 0.0 0.0 0.0 0.0
0.5 0.2 1.0 0.8 0.5 0.5 0.0 0.0 1.0 0.0 0.0 0.0 0.0 0.0 0.0 0.0 0.0 0.0 0.0 0.0 0.0 0.0
1.3 0.9 0.2 0.9 0.7 0.5 0.0 0.0 0.0 1.7 0.0 0.0 0.0 0.0 0.0 0.0 0.0 0.0 0.0 0.0 0.0 0.0
0.9 1.2 0.6 0.0 0.0 0.8 0.7 0.0 1.3 1.9 1.9 0.0 0.0 0.0 0.0 0.0 0.0 0.0 0.0 0.0 0.0 0.0
0.4 0.4 0.4 0.1 0.0 1.5 1.0 0.4 0.8 1.0 1.4 1.0 0.0 0.0 1.5 0.0 0.0 0.0 0.0 0.0 0.0 0.0
0.0 0.5 0.2 0.0 0.0 0.0 1.6 1.2 0.4 1.0 0.9 0.9 0.0 0.0 1.9 0.0 0.0 0.0 0.0 0.0 0.0 0.0
0.0 0.0 0.6 0.2 0.3 0.0 0.0 1.1 0.0 1.1 0.8 0.8 0.0 0.0 1.5 0.0 0.0 0.0 1.1 1.8 0.0 0.0
0.2 0.0 0.0 0.3 0.3 0.2 0.4 0.7 0.2 1.0 0.8 0.5 0.0 0.0 1.0 0.0 0.0 0.0 0.0 1.7 0.0 0.0
0.6 0.0 0.0 0.3 0.3 0.2 0.2 0.7 1.0 0.9 0.6 0.4 0.0 0.0 1.3 0.0 0.4 0.0 1.3 1.5 0.0 0.0
0.1 0.1 0.1 0.3 0.2 0.2 0.6 0.5 0.6 0.6 0.4 0.1 0.0 0.0 0.8 1.4 0.0 1.1 1.2 0.0 0.0 0.0
0.8 1.4 0.8 0.4 0.2 0.1 0.8 0.7 0.4 0.6 0.2 0.1 0.5 0.0 0.7 0.8 1.3 1.3 1.0 1.1 0.0 0.0
1.7 2.0 1.4 1.8 0.5 0.9 1.0 1.0 0.7 0.7 0.1 0.9 0.6 0.4 0.4 0.9 1.6 1.2 0.8 1.2 0.0 0.0

GFSNIL_prec_snow24_261.txt.gz
Snowfall_Accumulation
0.0 0.0 0.0 0.0 0.0 0.0 0.0 0.0 0.0 0.0 0.0 0.0 0.0 0.0 0.0 0.0 0.0 0.0 0.0 0.0 0.0 0.0
0.6 0.8 0.9 0.0 0.0 0.0 0.0 0.0 0.0 0.0 0.0 0.0 0.0 0.0 0.0 0.0 0.0 0.0 0.0 0.0 0.0 0.0
0.9 1.1 1.0 1.1 0.0 0.0 0.6 0.0 0.0 0.0 0.0 0.0 0.0 0.0 0.0 0.0 0.0 0.0 0.0 0.0 0.0 0.0
0.5 0.2 1.0 0.8 0.5 0.5 0.0 0.0 1.0 0.0 0.0 0.0 0.0 0.0 0.0 0.0 0.0 0.0 0.0 0.0 0.0 0.0
1.3 0.9 0.2 0.9 0.7 0.5 0.0 0.0 0.0 1.7 0.0 0.0 0.0 0.0 0.0 0.0 0.0 0.0 0.0 0.0 0.0 0.0
0.9 1.2 0.6 0.0 0.0 0.8 0.7 0.0 1.3 1.9 1.9 0.0 0.0 0.0 0.0 0.0 0.0 0.0 0.0 0.0 0.0 0.0
0.4 0.4 0.4 0.1 0.0 1.5 1.0 0.4 0.8 1.0 1.4 1.0 0.0 0.0 1.5 0.0 0.0 0.0 0.0 0.0 0.0 0.0
0.0 0.5 0.2 0.0 0.0 0.0 1.6 1.2 0.4 1.0 0.9 0.9 0.0 0.0 1.9 0.0 0.0 0.0 0.0 0.0 0.0 0.0
0.0 0.0 0.6 0.2 0.3 0.0 0.0 1.1 0.0 1.1 0.8 0.8 0.0 0.0 1.5 0.0 0.0 0.0 1.1 1.8 0.0 0.0
0.2 0.0 0.0 0.3 0.3 0.2 0.4 0.7 0.2 1.0 0.8 0.5 0.0 0.0 1.0 0.0 0.0 0.0 0.0 1.7 0.0 0.0
0.6 0.0 0.0 0.3 0.3 0.2 0.2 0.7 1.0 0.9 0.6 0.4 0.0 0.0 1.3 0.0 0.4 0.0 1.3 1.5 0.0 0.0
0.1 0.1 0.1 0.3 0.2 0.2 0.6 0.6 0.6 0.6 0.4 0.1 0.0 0.0 0.8 1.4 0.0 1.2 1.2 0.0 0.0 0.0
0.8 1.6 1.1 0.6 0.3 0.2 1.0 1.0 0.6 0.7 0.2 0.1 0.5 0.0 0.7 0.8 1.4 1.4 1.0 1.1 0.0 0.2
1.8 2.2 1.8 2.3 0.9 1.3 1.5 1.4 0.9 0.9 0.1 0.9 0.6 0.4 0.5 0.9 1.6 1.3 1.0 1.4 0.0 0.0

GFSNIL_prec_snow24_264.txt.gz
Snowfall_Accumulation
0.0 0.0 0.0 0.0 0.0 0.0 0.0 0.0 0.0 0.0 0.0 0.0 0.0 0.0 0.0 0.0 0.0 0.0 0.0 0.0 0.0 0.0
0.6 0.8 0.9 0.0 0.0 0.0 0.0 0.0 0.0 0.0 0.0 0.0 0.0 0.0 0.0 0.0 0.0 0.0 0.0 0.0 0.0 0.0
0.9 1.1 1.0 1.1 0.0 0.0 0.6 0.0 0.0 0.0 0.0 0.0 0.0 0.0 0.0 0.0 0.0 0.0 0.0 0.0 0.0 0.0
0.5 0.2 1.0 0.8 0.5 0.5 0.0 0.0 1.0 0.0 0.0 0.0 0.0 0.0 0.0 0.0 0.0 0.0 0.0 0.0 0.0 0.0
1.3 0.9 0.2 0.9 0.7 0.5 0.0 0.0 0.0 1.7 0.0 0.0 0.0 0.0 0.0 0.0 0.0 0.0 0.0 0.0 0.0 0.0
0.9 1.2 0.6 0.0 0.0 0.8 0.7 0.0 1.3 1.9 1.9 0.0 0.0 0.0 0.0 0.0 0.0 0.0 0.0 0.0 0.0 0.0
0.4 0.4 0.4 0.1 0.0 1.5 1.0 0.4 0.8 1.0 1.4 1.0 0.0 0.0 1.5 0.0 0.0 0.0 0.0 0.0 0.0 0.0
0.0 0.5 0.2 0.0 0.0 0.0 1.6 1.2 0.4 1.0 0.9 0.9 0.0 0.0 1.9 0.0 0.0 0.0 0.0 0.0 0.0 0.0
0.0 0.0 0.6 0.2 0.3 0.0 0.0 1.1 0.0 1.1 0.8 0.8 0.0 0.0 1.6 0.0 0.0 0.1 1.1 1.8 0.0 0.0
0.2 0.0 0.0 0.3 0.3 0.2 0.4 0.7 0.2 1.0 0.8 0.5 0.0 0.0 1.0 0.1 0.0 0.1 0.1 1.7 0.0 0.0
0.3 0.0 0.0 0.3 0.3 0.2 0.2 0.7 1.0 0.9 0.6 0.4 0.0 0.0 1.3 0.0 0.5 0.2 1.4 1.5 0.0 0.0
0.0 0.1 0.2 0.4 0.2 0.2 0.7 0.7 0.7 0.7 0.5 0.2 0.0 0.0 0.8 1.5 0.2 1.5 1.3 0.0 0.0 0.0
0.4 0.9 1.3 0.7 0.5 0.3 1.1 1.2 0.7 0.9 0.2 0.2 0.6 0.0 0.7 0.9 1.6 1.7 1.1 1.1 0.0 0.2
0.9 1.9 2.1 2.5 1.0 1.5 1.9 1.8 1.4 1.3 0.4 1.2 0.9 0.5 0.5 0.9 1.8 1.7 1.0 1.5 0.0 0.0

GFSNIL_prec_snow24_270.txt.gz
Snowfall_Accumulation
0.0 0.0 0.0 0.0 0.0 0.0 0.0 0.0 0.0 0.0 0.0 0.0 0.0 0.0 0.0 0.0 0.0 0.0 0.0 0.0 0.0 0.0
0.6 0.8 0.9 0.0 0.0 0.0 0.0 0.0 0.0 0.0 0.0 0.0 0.0 0.0 0.0 0.0 0.0 0.0 0.0 0.0 0.0 0.0
0.9 1.1 1.0 1.1 0.0 0.0 0.6 0.0 0.0 0.0 0.0 0.0 0.0 0.0 0.0 0.0 0.0 0.0 0.0 0.0 0.0 0.0
0.0 0.0 1.0 0.8 0.5 0.5 0.0 0.0 1.0 0.0 0.0 0.0 0.0 0.0 0.0 0.0 0.0 0.0 0.0 0.0 0.0 0.0
0.0 0.0 0.0 0.9 0.7 0.5 0.0 0.0 0.0 1.7 0.0 0.0 0.0 0.0 0.0 0.0 0.0 0.0 0.0 0.0 0.0 0.0
0.0 0.0 0.0 0.0 0.0 0.8 0.7 0.0 1.3 1.9 1.9 0.0 0.0 0.0 0.0 0.0 0.0 0.0 0.0 0.0 0.0 0.0
0.0 0.0 0.0 0.0 0.0 1.5 1.0 0.4 0.8 1.0 1.4 1.0 0.0 0.0 1.5 0.0 0.0 0.0 0.0 0.0 0.0 0.0
0.0 0.0 0.0 0.0 0.0 0.0 1.6 1.2 0.4 1.0 0.9 0.9 0.0 0.0 1.9 0.0 0.0 0.0 0.0 0.0 0.0 0.0
0.0 0.0 0.0 0.0 0.3 0.0 0.0 1.1 0.0 1.1 0.8 0.8 0.0 0.0 1.6 0.0 0.3 0.6 1.5 1.8 0.0 0.0
0.0 0.0 0.0 0.0 0.2 0.2 0.4 0.7 0.2 1.0 0.8 0.5 0.0 0.0 1.1 0.1 0.3 0.8 0.6 1.9 0.1 0.1
0.0 0.0 0.0 0.2 0.3 0.2 0.2 0.7 1.0 1.0 0.6 0.5 0.1 0.1 1.4 0.1 1.0 1.3 1.9 1.6 0.1 0.1
0.0 0.1 0.2 0.4 0.2 0.3 0.7 0.9 0.8 0.8 0.7 0.5 0.1 0.0 0.9 1.9 1.9 3.0 1.9 0.1 0.1 0.1
0.1 0.6 1.3 0.5 0.6 0.4 1.2 1.7 1.1 1.2 0.3 0.4 1.2 0.4 1.1 1.8 4.3 4.3 2.0 1.3 0.0 0.3
0.3 1.3 1.7 1.7 1.2 1.8 2.5 2.3 1.6 1.4 0.4 1.6 2.1 1.9 1.5 2.0 4.2 4.4 2.3 1.9 0.1 0.0

GFSNIL_prec_snow24_273.txt.gz
Snowfall_Accumulation
0.0 0.0 0.0 0.0 0.0 0.0 0.0 0.0 0.0 0.0 0.0 0.0 0.0 0.0 0.0 0.0 0.0 0.0 0.0 0.0 0.0 0.0
0.0 0.0 0.0 0.0 0.0 0.0 0.0 0.0 0.0 0.0 0.0 0.0 0.0 0.0 0.0 0.0 0.0 0.0 0.0 0.0 0.0 0.0
0.0 0.0 0.0 0.0 0.0 0.0 0.6 0.0 0.0 0.0 0.0 0.0 0.0 0.0 0.0 0.0 0.0 0.0 0.0 0.0 0.0 0.0
0.0 0.0 0.0 0.0 0.0 0.0 0.0 0.0 1.0 0.0 0.0 0.0 0.0 0.0 0.0 0.0 0.0 0.0 0.0 0.0 0.0 0.0
0.0 0.0 0.0 0.0 0.0 0.0 0.0 0.0 0.0 1.7 0.0 0.0 0.0 0.0 0.0 0.0 0.0 0.0 0.0 0.0 0.0 0.0
0.0 0.0 0.0 0.0 0.0 0.0 0.0 0.0 1.3 1.9 1.9 0.0 0.0 0.0 0.0 0.0 0.0 0.0 0.0 0.0 0.0 0.0
0.0 0.0 0.0 0.0 0.0 0.0 0.0 0.0 0.8 1.0 1.4 1.0 0.0 0.0 1.5 0.0 0.0 0.0 0.0 0.0 0.0 0.0
0.0 0.0 0.0 0.0 0.0 0.0 0.0 0.0 0.0 1.0 0.9 0.9 0.0 0.0 1.9 0.1 0.1 0.1 0.0 0.0 0.0 0.0
0.0 0.0 0.0 0.0 0.0 0.0 0.0 0.0 0.0 1.1 0.8 0.8 0.0 0.0 1.6 0.1 0.8 1.2 1.8 2.0 0.0 0.0
0.0 0.0 0.0 0.0 0.0 0.0 0.0 0.0 0.0 1.0 0.8 0.5 0.0 0.0 1.1 0.3 0.8 1.5 0.9 2.0 0.2 0.2
0.0 0.0 0.0 0.0 0.0 0.0 0.0 0.4 1.0 1.0 0.6 0.5 0.2 0.2 1.6 0.3 1.5 1.9 2.2 1.8 0.2 0.2
0.0 0.1 0.2 0.2 0.0 0.1 0.5 0.8 0.7 0.9 1.0 0.9 0.3 0.1 1.0 2.1 2.5 3.6 2.1 0.1 0.1 0.1
0.1 0.6 1.0 0.5 0.5 0.4 1.2 1.8 1.2 1.4 0.4 0.7 1.5 0.5 1.2 2.0 5.1 5.2 2.3 1.3 0.0 0.3
0.3 1.1 1.5 1.5 1.1 1.8 2.5 2.4 1.6 1.5 0.6 1.6 2.5 2.4 1.8 2.4 5.0 5.3 2.8 2.3 0.4 0.3

GFSNIL_prec_snow24_279.txt.gz
Snowfall_Accumulation
0.0 0.0 0.0 0.0 0.0 0.0 0.0 0.0 0.0 0.0 0.0 0.0 0.0 0.0 0.0 0.0 0.0 0.0 0.0 0.0 0.0 0.0
0.0 0.0 0.0 0.0 0.0 0.0 0.0 0.0 0.0 0.0 0.0 0.0 0.0 0.0 0.0 0.0 0.0 0.0 0.0 0.0 0.0 0.0
0.0 0.0 0.0 0.0 0.0 0.0 0.0 0.0 0.0 0.0 0.0 0.0 0.0 0.0 0.0 0.0 0.0 0.0 0.0 0.0 0.0 0.0
0.0 0.0 0.0 0.0 0.0 0.0 0.0 0.0 0.0 0.0 0.0 0.0 0.0 0.0 0.0 0.0 0.0 0.0 0.0 0.0 0.0 0.0
0.0 0.0 0.0 0.0 0.0 0.0 0.0 0.0 0.0 0.0 0.0 0.0 0.0 0.0 0.0 0.0 0.0 0.0 0.0 0.0 0.0 0.0
0.0 0.0 0.0 0.0 0.0 0.0 0.0 0.0 0.0 0.0 0.0 0.0 0.0 0.0 0.0 0.0 0.0 0.0 0.0 0.0 0.0 0.0
0.0 0.0 0.0 0.0 0.0 0.0 0.0 0.0 0.0 0.0 0.0 0.0 0.0 0.0 0.0 0.0 0.0 0.0 0.0 0.0 0.0 0.0
0.0 0.0 0.0 0.0 0.0 0.0 0.0 0.0 0.0 0.0 0.0 0.0 0.0 0.0 0.0 0.2 0.7 0.6 0.4 0.2 0.1 0.0
0.0 0.0 0.0 0.0 0.0 0.0 0.0 0.0 0.0 0.0 0.0 0.0 0.0 0.0 0.2 0.3 1.6 2.1 2.6 2.7 0.5 0.2
0.0 0.0 0.0 0.0 0.0 0.0 0.0 0.0 0.0 0.0 0.0 0.0 0.0 0.0 0.2 0.8 1.8 2.9 1.9 2.8 0.8 0.6
0.0 0.0 0.0 0.0 0.0 0.0 0.0 0.0 0.1 0.2 0.1 0.1 0.3 0.3 0.4 0.8 2.3 2.8 2.3 1.9 0.3 0.3
0.0 0.0 0.2 0.2 0.0 0.1 0.1 0.4 0.2 0.3 0.6 0.7 0.5 0.1 0.4 1.3 3.6 4.2 2.2 0.1 0.1 0.1
0.1 0.4 0.8 0.4 0.5 0.3 0.5 1.4 0.8 0.8 0.2 0.6 1.0 0.5 0.5 1.5 6.1 6.3 2.7 1.5 0.1 0.3
0.2 0.8 1.2 1.4 0.8 1.4 2.0 1.6 1.0 0.8 0.5 0.8 1.9 2.0 1.6 2.8 6.2 7.3 4.8 3.3 0.6 0.4

GFSNIL_prec_snow24_282.txt.gz
Snowfall_Accumulation
0.0 0.0 0.0 0.0 0.0 0.0 0.0 0.0 0.0 0.0 0.0 0.0 0.0 0.0 0.0 0.0 0.0 0.0 0.0 0.0 0.0 0.0
0.0 0.0 0.0 0.0 0.0 0.0 0.0 0.0 0.0 0.0 0.0 0.0 0.0 0.0 0.0 0.0 0.0 0.0 0.0 0.0 0.0 0.0
0.0 0.0 0.0 0.0 0.0 0.0 0.0 0.0 0.0 0.0 0.0 0.0 0.0 0.0 0.0 0.0 0.0 0.0 0.0 0.0 0.0 0.0
0.0 0.0 0.0 0.0 0.0 0.0 0.0 0.0 0.0 0.0 0.0 0.0 0.0 0.0 0.0 0.0 0.0 0.0 0.0 0.0 0.0 0.0
0.0 0.0 0.0 0.0 0.0 0.0 0.0 0.0 0.0 0.0 0.0 0.0 0.0 0.0 0.0 0.0 0.0 0.0 0.0 0.0 0.0 0.0
0.0 0.0 0.0 0.0 0.0 0.0 0.0 0.0 0.0 0.0 0.0 0.0 0.0 0.0 0.0 0.0 0.0 0.0 0.0 0.0 0.0 0.0
0.0 0.0 0.0 0.0 0.0 0.0 0.0 0.0 0.0 0.0 0.0 0.0 0.0 0.0 0.0 0.0 0.0 0.0 0.0 0.0 0.0 0.0
0.0 0.0 0.0 0.0 0.0 0.0 0.0 0.0 0.0 0.0 0.0 0.0 0.0 0.0 0.0 0.3 0.9 0.8 0.5 0.3 0.2 0.2
0.0 0.0 0.0 0.0 0.0 0.0 0.0 0.0 0.0 0.0 0.0 0.0 0.0 0.0 0.2 0.3 1.9 2.5 1.9 0.9 0.5 0.5
0.0 0.0 0.0 0.0 0.0 0.0 0.0 0.0 0.0 0.0 0.0 0.0 0.0 0.0 0.3 0.8 1.9 3.1 2.1 1.3 0.9 0.7
0.0 0.0 0.0 0.0 0.0 0.0 0.0 0.0 0.1 0.1 0.1 0.1 0.3 0.3 0.5 0.8 2.1 3.0 1.2 0.5 0.3 0.3
0.0 0.0 0.1 0.1 0.0 0.1 0.1 0.4 0.2 0.3 0.6 0.7 0.5 0.1 0.5 1.5 4.2 3.3 1.1 0.2 0.2 0.2
0.0 0.2 0.6 0.3 0.4 0.3 0.5 1.3 0.8 0.7 0.2 0.6 1.0 0.5 0.5 1.6 5.1 5.6 2.0 0.6 0.2 0.4
0.1 0.5 0.9 1.0 0.6 1.2 1.8 1.5 0.9 0.8 0.5 0.8 1.9 2.0 1.7 1.9 5.1 6.8 4.7 2.4 0.7 0.4

GFSNIL_prec_snow24_285.txt.gz
Snowfall_Accumulation
0.0 0.0 0.0 0.0 0.0 0.0 0.0 0.0 0.0 0.0 0.0 0.0 0.0 0.0 0.0 0.0 0.0 0.0 0.0 0.0 0.0 0.0
0.0 0.0 0.0 0.0 0.0 0.0 0.0 0.0 0.0 0.0 0.0 0.0 0.0 0.0 0.0 0.0 0.0 0.0 0.0 0.0 0.0 0.0
0.0 0.0 0.0 0.0 0.0 0.0 0.0 0.0 0.0 0.0 0.0 0.0 0.0 0.0 0.0 0.0 0.0 0.0 0.0 0.0 0.0 0.0
0.0 0.0 0.0 0.0 0.0 0.0 0.0 0.0 0.0 0.0 0.0 0.0 0.0 0.0 0.0 0.0 0.0 0.0 0.0 0.0 0.0 0.0
0.0 0.0 0.0 0.0 0.0 0.0 0.0 0.0 0.0 0.0 0.0 0.0 0.0 0.0 0.0 0.0 0.0 0.0 0.0 0.0 0.0 0.0
0.0 0.0 0.0 0.0 0.0 0.0 0.0 0.0 0.0 0.0 0.0 0.0 0.0 0.0 0.0 0.0 0.0 0.0 0.0 0.0 0.0 0.0
0.0 0.0 0.0 0.0 0.0 0.0 0.0 0.0 0.0 0.0 0.0 0.0 0.0 0.0 0.0 0.0 0.0 0.0 0.0 0.0 0.0 0.0
0.0 0.0 0.0 0.0 0.0 0.0 0.0 0.0 0.0 0.0 0.0 0.0 0.0 0.0 0.0 0.3 0.9 0.8 0.5 0.3 0.4 0.4
0.0 0.0 0.0 0.0 0.0 0.0 0.0 0.0 0.0 0.0 0.0 0.0 0.0 0.0 0.2 0.3 2.1 2.9 2.1 0.9 0.5 0.5
0.0 0.0 0.0 0.0 0.0 0.0 0.0 0.0 0.0 0.0 0.0 0.0 0.0 0.0 0.3 0.8 2.0 3.2 2.1 1.3 0.9 0.7
0.0 0.0 0.0 0.0 0.0 0.0 0.0 0.0 0.0 0.1 0.1 0.1 0.3 0.3 0.5 0.9 2.1 3.0 1.1 0.5 0.3 0.5
0.0 0.0 0.0 0.0 0.0 0.1 0.1 0.3 0.1 0.2 0.5 0.7 0.5 0.1 0.5 1.6 4.4 3.5 1.1 0.3 0.3 0.3
0.0 0.1 0.4 0.2 0.3 0.2 0.3 1.1 0.6 0.6 0.2 0.6 1.0 0.5 0.5 1.6 5.2 5.8 2.3 0.5 0.4 0.2
0.0 0.2 0.4 0.5 0.3 0.7 1.3 1.1 0.6 0.6 0.5 0.8 1.9 2.0 1.6 1.9 5.1 7.1 5.1 2.4 0.9 0.5

GFSNIL_prec_snow24_288.txt.gz
Snowfall_Accumulation
0.0 0.0 0.0 0.0 0.0 0.0 0.0 0.0 0.0 0.0 0.0 0.0 0.0 0.0 0.0 0.0 0.0 0.0 0.0 0.0 0.0 0.0
0.0 0.0 0.0 0.0 0.0 0.0 0.0 0.0 0.0 0.0 0.0 0.0 0.0 0.0 0.0 0.0 0.0 0.0 0.0 0.0 0.0 0.0
0.0 0.0 0.0 0.0 0.0 0.0 0.0 0.0 0.0 0.0 0.0 0.0 0.0 0.0 0.0 0.0 0.0 0.0 0.0 0.0 0.0 0.0
0.0 0.0 0.0 0.0 0.0 0.0 0.0 0.0 0.0 0.0 0.0 0.0 0.0 0.0 0.0 0.0 0.0 0.0 0.0 0.0 0.0 0.0
0.0 0.0 0.0 0.0 0.0 0.0 0.0 0.0 0.0 0.0 0.0 0.0 0.0 0.0 0.0 0.0 0.0 0.0 0.0 0.0 0.0 0.0
0.0 0.0 0.0 0.0 0.0 0.0 0.0 0.0 0.0 0.0 0.0 0.0 0.0 0.0 0.0 0.0 0.0 0.0 0.0 0.0 0.0 0.0
0.0 0.0 0.0 0.0 0.0 0.0 0.0 0.0 0.0 0.0 0.0 0.0 0.0 0.0 0.0 0.0 0.0 0.0 0.0 0.0 0.0 0.0
0.0 0.0 0.0 0.0 0.0 0.0 0.0 0.0 0.0 0.0 0.0 0.0 0.0 0.0 0.0 0.3 0.9 0.9 0.6 0.3 0.4 0.4
0.0 0.0 0.0 0.0 0.0 0.0 0.0 0.0 0.0 0.0 0.0 0.0 0.0 0.0 0.2 0.3 2.2 3.0 2.1 0.9 0.5 0.5
0.0 0.0 0.0 0.0 0.0 0.0 0.0 0.0 0.0 0.0 0.0 0.0 0.0 0.0 0.3 0.8 2.1 3.1 2.0 1.2 0.9 0.7
0.0 0.0 0.0 0.0 0.0 0.0 0.0 0.0 0.0 0.1 0.1 0.1 0.3 0.3 0.4 1.0 2.0 2.8 1.1 0.5 0.3 0.5
0.0 0.0 0.0 0.0 0.0 0.0 0.1 0.2 0.0 0.2 0.5 0.6 0.5 0.1 0.6 1.6 4.2 3.1 1.0 0.3 0.3 0.3
0.0 0.0 0.2 0.0 0.1 0.1 0.2 0.8 0.5 0.4 0.2 0.5 0.8 0.5 0.5 1.6 5.0 5.5 2.2 0.7 0.4 0.2
0.0 0.0 0.1 0.3 0.2 0.5 0.8 0.6 0.2 0.2 0.2 0.5 1.6 1.9 1.6 1.9 4.9 6.7 5.6 2.6 0.9 0.5

GFSNIL_prec_snow24_291.txt.gz
Snowfall_Accumulation
0.0 0.0 0.0 0.0 0.0 0.0 0.0 0.0 0.0 0.0 0.0 0.0 0.0 0.0 0.0 0.0 0.0 0.0 0.0 0.0 0.0 0.0
0.0 0.0 0.0 0.0 0.0 0.0 0.0 0.0 0.0 0.0 0.0 0.0 0.0 0.0 0.0 0.0 0.0 0.0 0.0 0.0 0.0 0.0
0.0 0.0 0.0 0.0 0.0 0.0 0.0 0.0 0.0 0.0 0.0 0.0 0.0 0.0 0.0 0.0 0.0 0.0 0.0 0.0 0.0 0.0
0.0 0.0 0.0 0.0 0.0 0.0 0.0 0.0 0.0 0.0 0.0 0.0 0.0 0.0 0.0 0.0 0.0 0.0 0.0 0.0 0.0 0.0
0.0 0.0 0.0 0.0 0.0 0.0 0.0 0.0 0.0 0.0 0.0 0.0 0.0 0.0 0.0 0.0 0.0 0.0 0.0 0.0 0.0 0.0
0.0 0.0 0.0 0.0 0.0 0.0 0.0 0.0 0.0 0.0 0.0 0.0 0.0 0.0 0.0 0.0 0.0 0.0 0.0 0.0 0.0 0.0
0.0 0.0 0.0 0.0 0.0 0.0 0.0 0.0 0.0 0.0 0.0 0.0 0.0 0.0 0.0 0.0 0.0 0.0 0.0 0.0 0.0 0.0
0.0 0.0 0.0 0.0 0.0 0.0 0.0 0.0 0.0 0.0 0.0 0.0 0.0 0.0 0.0 0.3 0.9 0.9 0.6 0.3 0.4 0.4
0.0 0.0 0.0 0.0 0.0 0.0 0.0 0.0 0.0 0.0 0.0 0.0 0.0 0.0 0.2 0.3 2.1 2.8 1.9 0.9 0.5 0.5
0.0 0.0 0.0 0.0 0.0 0.0 0.0 0.0 0.0 0.0 0.0 0.0 0.0 0.0 0.3 0.8 2.0 2.8 1.8 1.1 0.8 0.7
0.0 0.0 0.0 0.0 0.0 0.0 0.0 0.0 0.0 0.0 0.0 0.1 0.3 0.2 0.4 0.9 1.9 2.3 0.9 0.4 0.3 0.4
0.0 0.0 0.0 0.0 0.0 0.0 0.0 0.1 0.0 0.2 0.4 0.5 0.4 0.1 0.6 1.5 3.4 2.5 0.8 0.3 0.2 0.2
0.0 0.0 0.0 0.0 0.0 0.0 0.0 0.5 0.3 0.3 0.2 0.3 0.5 0.3 0.4 1.4 3.9 4.7 2.0 0.7 0.5 0.2
0.0 0.0 0.0 0.0 0.0 0.3 0.5 0.4 0.1 0.2 0.2 0.2 0.8 0.9 1.2 1.6 3.8 5.8 5.9 2.8 0.9 0.5

GFSNIL_prec_snow24_297.txt.gz
Snowfall_Accumulation
0.0 0.0 0.0 0.0 0.0 0.0 0.0 0.0 0.0 0.0 0.0 0.0 0.0 0.0 0.0 0.0 0.0 0.0 0.0 0.0 0.0 0.0
0.0 0.0 0.0 0.0 0.0 0.0 0.0 0.0 0.0 0.0 0.0 0.0 0.0 0.0 0.0 0.0 0.0 0.0 0.0 0.0 0.0 0.0
0.0 0.0 0.0 0.0 0.0 0.0 0.0 0.0 0.0 0.0 0.0 0.0 0.0 0.0 0.0 0.0 0.0 0.0 0.0 0.0 0.0 0.0
0.0 0.0 0.0 0.0 0.0 0.0 0.0 0.0 0.0 0.0 0.0 0.0 0.0 0.0 0.0 0.0 0.0 0.0 0.0 0.0 0.0 0.0
0.0 0.0 0.0 0.0 0.0 0.0 0.0 0.0 0.0 0.0 0.0 0.0 0.0 0.0 0.0 0.0 0.0 0.0 0.0 0.0 0.0 0.0
0.0 0.0 0.0 0.0 0.0 0.0 0.0 0.0 0.0 0.1 0.1 0.0 0.0 0.0 0.0 0.0 0.0 0.0 0.0 0.0 0.0 0.0
0.0 0.0 0.0 0.0 0.0 0.0 0.0 0.2 0.1 0.0 0.0 0.0 0.0 0.0 0.0 0.0 0.0 0.0 0.0 0.0 0.0 0.0
0.3 0.4 0.5 0.7 0.5 0.3 0.1 0.0 0.0 0.0 0.0 0.0 0.0 0.0 0.0 0.2 0.7 0.8 0.6 0.3 0.4 0.4
0.9 0.2 0.8 0.4 0.2 0.1 0.0 0.0 0.0 0.0 0.0 0.0 0.0 0.0 0.2 0.3 1.5 1.8 1.3 0.6 0.4 0.5
0.8 0.4 0.2 0.1 0.0 0.0 0.0 0.0 0.0 0.0 0.0 0.0 0.0 0.0 0.2 0.6 1.3 1.7 1.2 0.9 0.7 0.5
0.3 0.0 0.0 0.0 0.0 0.0 0.0 0.0 0.0 0.0 0.0 0.0 0.1 0.1 0.2 0.7 1.1 1.1 0.2 0.2 0.1 0.3
0.1 0.0 0.1 0.0 0.0 0.0 0.0 0.0 0.0 0.0 0.0 0.0 0.2 0.0 0.5 1.0 1.9 1.1 0.2 0.2 0.2 0.2
0.1 0.1 0.0 0.0 0.0 0.0 0.0 0.1 0.0 0.0 0.0 0.0 0.0 0.0 0.1 0.5 1.5 2.0 1.0 0.6 0.5 0.2
0.0 0.0 0.0 0.0 0.0 0.1 0.2 0.0 0.0 0.0 0.0 0.0 0.0 0.0 0.3 0.5 1.7 3.2 5.3 2.0 0.5 0.2

GFSNIL_prec_snow24_300.txt.gz
Snowfall_Accumulation
0.0 0.0 0.0 0.0 0.0 0.0 0.0 0.0 0.0 0.0 0.0 0.0 0.0 0.0 0.0 0.0 0.0 0.0 0.0 0.0 0.0 0.0
0.0 0.0 0.0 0.0 0.0 0.0 0.0 0.0 0.0 0.0 0.0 0.0 0.0 0.0 0.0 0.0 0.0 0.0 0.0 0.0 0.0 0.0
0.0 0.0 0.0 0.0 0.0 0.0 0.0 0.0 0.0 0.0 0.0 0.0 0.0 0.0 0.0 0.0 0.0 0.0 0.0 0.0 0.0 0.0
0.0 0.0 0.0 0.0 0.0 0.0 0.0 0.0 0.0 0.0 0.0 0.0 0.0 0.0 0.0 0.0 0.0 0.0 0.0 0.0 0.0 0.0
0.0 0.0 0.0 0.0 0.0 0.0 0.0 0.0 0.0 0.0 0.0 0.0 0.0 0.0 0.0 0.0 0.0 0.0 0.0 0.0 0.0 0.0
0.0 0.0 0.0 0.0 0.0 0.0 0.0 0.0 0.0 0.1 0.1 0.0 0.0 0.0 0.0 0.0 0.0 0.0 0.0 0.0 0.0 0.0
0.0 0.1 0.0 0.0 0.0 0.0 0.0 0.2 0.1 0.0 0.2 0.1 0.0 0.0 0.0 0.0 0.0 0.0 0.0 0.0 0.0 0.0
0.4 0.5 0.6 0.8 0.8 0.6 0.4 0.3 0.2 0.1 0.0 0.0 0.0 0.0 0.0 0.1 0.5 0.6 0.4 0.3 0.4 0.4
1.0 0.3 0.8 1.0 0.8 0.5 0.3 0.1 0.0 0.0 0.0 0.0 0.0 0.0 0.1 0.2 1.0 1.3 0.9 0.3 0.2 0.4
1.1 0.8 0.6 0.4 0.2 0.1 0.0 0.0 0.0 0.0 0.0 0.0 0.0 0.0 0.2 0.3 0.6 0.8 0.6 0.4 0.4 0.3
0.7 0.4 0.3 0.2 0.0 0.0 0.0 0.0 0.0 0.0 0.0 0.0 0.0 0.0 0.1 0.4 0.6 0.5 0.2 0.1 0.0 0.1
0.4 0.2 0.2 0.0 0.0 0.1 0.0 0.0 0.0 0.0 0.0 0.0 0.0 0.0 0.3 0.7 1.4 0.7 0.1 0.2 0.2 0.2
0.3 0.2 0.1 0.1 0.1 0.0 0.0 0.0 0.0 0.0 0.0 0.0 0.0 0.0 0.1 0.3 0.9 1.4 0.8 0.6 0.5 0.2
0.0 0.0 0.0 0.0 0.0 0.0 0.1 0.0 0.0 0.0 0.0 0.0 0.0 0.0 0.1 0.2 0.9 2.0 4.5 1.4 0.3 0.1

GFSNIL_prec_snow24_303.txt.gz
Snowfall_Accumulation
0.0 0.0 0.0 0.0 0.0 0.0 0.0 0.0 0.0 0.0 0.0 0.0 0.0 0.0 0.0 0.0 0.0 0.0 0.0 0.0 0.0 0.0
0.0 0.0 0.0 0.0 0.0 0.0 0.0 0.0 0.0 0.0 0.0 0.0 0.0 0.0 0.0 0.0 0.0 0.0 0.0 0.0 0.0 0.0
0.0 0.0 0.0 0.0 0.0 0.0 0.0 0.0 0.0 0.0 0.0 0.0 0.0 0.0 0.0 0.0 0.0 0.0 0.0 0.0 0.0 0.0
0.0 0.0 0.0 0.0 0.0 0.0 0.0 0.0 0.0 0.0 0.0 0.0 0.0 0.0 0.0 0.0 0.0 0.0 0.0 0.0 0.0 0.0
0.0 0.0 0.0 0.0 0.0 0.0 0.0 0.0 0.0 0.0 0.0 0.0 0.0 0.0 0.0 0.0 0.0 0.0 0.0 0.0 0.0 0.0
0.0 0.0 0.0 0.0 0.0 0.0 0.0 0.0 0.0 0.1 0.1 0.0 0.0 0.0 0.0 0.0 0.0 0.0 0.0 0.0 0.0 0.0
0.1 0.2 0.1 0.1 0.1 0.0 0.0 0.2 0.1 0.0 0.2 0.1 0.0 0.0 0.0 0.0 0.0 0.0 0.0 0.0 0.0 0.0
0.4 0.6 0.8 1.0 1.0 0.8 0.6 0.4 0.3 0.2 0.0 0.0 0.0 0.0 0.0 0.0 0.1 0.2 0.2 0.1 0.3 0.4
1.3 0.6 1.0 1.3 1.1 0.8 0.6 0.5 0.2 0.1 0.0 0.0 0.0 0.0 0.1 0.1 0.7 0.9 0.6 0.0 0.0 0.2
1.2 1.0 0.9 0.8 0.7 0.5 0.3 0.1 0.0 0.0 0.0 0.0 0.0 0.0 0.2 0.1 0.3 0.3 0.2 0.2 0.1 0.1
0.9 0.6 0.6 0.5 0.4 0.3 0.1 0.1 0.2 0.1 0.0 0.0 0.0 0.0 0.1 0.2 0.2 0.2 0.1 0.1 0.0 0.1
0.6 0.5 0.5 0.3 0.3 0.5 0.5 0.4 0.1 0.0 0.0 0.0 0.0 0.0 0.2 0.4 0.8 0.5 0.1 0.2 0.2 0.2
0.6 0.5 0.5 0.5 0.4 0.2 0.1 0.1 0.0 0.0 0.0 0.0 0.0 0.0 0.1 0.3 0.5 1.0 0.6 0.4 0.4 0.1
0.4 0.3 0.3 0.2 0.1 0.1 0.0 0.0 0.0 0.0 0.0 0.0 0.0 0.0 0.1 0.1 0.5 1.2 3.7 1.0 0.3 0.1

GFSNIL_prec_snow24_306.txt.gz
Snowfall_Accumulation
0.0 0.0 0.0 0.0 0.1 0.1 0.1 0.0 0.0 0.0 0.0 0.0 0.0 0.0 0.0 0.0 0.0 0.0 0.0 0.0 0.0 0.0
0.0 0.0 0.0 0.1 0.1 0.1 0.0 0.0 0.0 0.0 0.0 0.0 0.0 0.0 0.0 0.0 0.0 0.0 0.0 0.0 0.0 0.0
0.0 0.0 0.0 0.1 0.1 0.0 0.0 0.0 0.0 0.0 0.0 0.0 0.0 0.0 0.0 0.0 0.0 0.0 0.0 0.0 0.0 0.0
0.0 0.0 0.1 0.0 0.0 0.0 0.0 0.0 0.0 0.0 0.0 0.0 0.0 0.0 0.0 0.0 0.0 0.0 0.0 0.0 0.0 0.0
0.0 0.0 0.0 0.0 0.0 0.0 0.0 0.0 0.0 0.0 0.0 0.0 0.0 0.0 0.0 0.0 0.0 0.0 0.0 0.0 0.0 0.0
0.0 0.0 0.0 0.0 0.0 0.0 0.0 0.0 0.0 0.1 0.1 0.0 0.0 0.0 0.0 0.0 0.0 0.0 0.0 0.0 0.0 0.0
0.1 0.2 0.1 0.2 0.2 0.1 0.0 0.2 0.1 0.0 0.2 0.1 0.0 0.0 0.0 0.0 0.0 0.0 0.0 0.0 0.0 0.0
0.4 0.6 0.8 1.0 1.0 0.8 0.7 0.4 0.5 0.3 0.1 0.0 0.0 0.0 0.0 0.0 0.0 0.0 0.0 0.0 0.1 0.2
1.4 0.7 1.1 1.6 1.6 1.3 1.1 0.8 0.4 0.2 0.1 0.0 0.0 0.0 0.1 0.1 0.4 0.5 0.2 0.0 0.0 0.0
1.8 1.4 1.4 1.4 1.2 1.0 0.7 0.4 0.3 0.1 0.1 0.2 0.2 0.1 0.1 0.1 0.2 0.1 0.0 0.0 0.0 0.0
1.4 1.1 0.9 0.8 0.7 0.6 0.5 0.6 0.7 0.6 0.4 0.2 0.0 0.0 0.1 0.2 0.0 0.0 0.0 0.0 0.0 0.1
1.0 0.8 0.8 0.7 0.7 0.9 0.9 0.8 0.5 0.3 0.2 0.1 0.0 0.0 0.1 0.1 0.2 0.2 0.0 0.1 0.1 0.1
0.9 0.8 0.8 0.8 0.7 0.5 0.4 0.4 0.4 0.3 0.1 0.0 0.0 0.0 0.1 0.2 0.2 0.4 0.3 0.3 0.3 0.0
0.7 0.6 0.5 0.5 0.4 0.4 0.3 0.2 0.1 0.0 0.0 0.0 0.0 0.0 0.0 0.1 0.1 0.5 3.0 0.8 0.1 0.1

GFSNIL_prec_snow24_309.txt.gz
Snowfall_Accumulation
0.0 0.0 0.0 0.0 0.1 0.1 0.1 0.2 0.1 0.1 0.0 0.0 0.0 0.0 0.0 0.0 0.0 0.0 0.0 0.0 0.0 0.0
0.0 0.0 0.0 0.1 0.1 0.1 0.2 0.1 0.0 0.0 0.0 0.0 0.0 0.0 0.0 0.0 0.0 0.0 0.0 0.0 0.0 0.0
0.0 0.0 0.0 0.1 0.1 0.1 0.1 0.1 0.0 0.0 0.0 0.0 0.0 0.0 0.0 0.0 0.0 0.0 0.0 0.0 0.0 0.0
0.0 0.0 0.1 0.0 0.0 0.0 0.1 0.0 0.0 0.0 0.0 0.0 0.0 0.0 0.0 0.0 0.0 0.0 0.0 0.0 0.0 0.0
0.0 0.0 0.0 0.0 0.0 0.0 0.0 0.0 0.0 0.0 0.0 0.0 0.0 0.0 0.0 0.0 0.0 0.0 0.0 0.0 0.0 0.0
0.0 0.0 0.0 0.0 0.0 0.0 0.0 0.0 0.0 0.1 0.1 0.0 0.0 0.0 0.0 0.0 0.0 0.0 0.0 0.0 0.0 0.0
0.1 0.2 0.1 0.2 0.2 0.1 0.0 0.2 0.1 0.0 0.2 0.1 0.0 0.0 0.0 0.0 0.0 0.0 0.0 0.0 0.0 0.0
0.4 0.6 0.8 1.2 1.1 0.8 0.8 0.4 0.5 0.3 0.1 0.0 0.0 0.0 0.0 0.0 0.0 0.0 0.0 0.0 0.0 0.0
1.7 1.1 1.5 2.0 1.8 1.4 1.2 0.9 0.4 0.2 0.1 0.0 0.0 0.0 0.1 0.1 0.1 0.1 0.0 0.0 0.0 0.0
2.4 1.9 2.0 2.0 1.8 1.4 1.0 0.6 0.4 0.3 0.3 0.4 0.2 0.3 0.3 0.3 0.3 0.2 0.1 0.0 0.0 0.0
1.7 1.4 1.3 1.2 1.1 0.9 0.8 0.9 1.0 0.9 0.7 0.5 0.3 0.3 0.4 0.4 0.3 0.2 0.1 0.0 0.0 0.0
1.3 1.1 1.1 1.0 1.0 1.2 1.3 1.2 0.9 0.7 0.6 0.5 0.3 0.3 0.3 0.2 0.1 0.1 0.0 0.0 0.0 0.0
1.2 1.2 1.2 1.2 1.1 0.8 0.8 0.7 0.7 0.6 0.5 0.4 0.2 0.1 0.1 0.1 0.1 0.2 0.0 0.3 0.2 0.0
0.9 0.9 0.9 0.8 0.7 0.7 0.6 0.5 0.3 0.2 0.2 0.1 0.0 0.0 0.0 0.1 0.1 0.1 2.5 0.5 0.0 0.0

GFSNIL_prec_snow24_315.txt.gz
Snowfall_Accumulation
0.0 0.0 0.0 0.0 0.1 0.1 0.1 0.2 0.1 0.1 0.0 0.1 0.1 0.0 0.0 0.0 0.0 0.0 0.0 0.0 0.0 0.0
0.0 0.0 0.0 0.1 0.1 0.1 0.2 0.3 0.2 0.3 0.2 0.2 0.1 0.1 0.0 0.0 0.0 0.0 0.0 0.0 0.0 0.0
0.0 0.0 0.0 0.1 0.1 0.1 0.1 0.2 0.1 0.1 0.1 0.1 0.1 0.0 0.1 0.0 0.0 0.0 0.0 0.0 0.0 0.0
0.0 0.0 0.1 0.0 0.0 0.0 0.1 0.0 0.0 0.0 0.1 0.0 0.0 0.0 0.1 0.0 0.0 0.0 0.0 0.0 0.0 0.0
0.0 0.0 0.0 0.0 0.0 0.0 0.0 0.0 0.0 0.0 0.0 0.0 0.0 0.0 0.0 0.1 0.1 0.0 0.0 0.0 0.0 0.0
0.0 0.0 0.0 0.0 0.0 0.0 0.0 0.0 0.0 0.1 0.1 0.1 0.0 0.0 0.1 0.0 0.0 0.0 0.0 0.0 0.0 0.0
0.1 0.2 0.1 0.2 0.2 0.1 0.0 0.2 0.1 0.0 0.3 0.2 0.3 0.2 0.0 0.0 0.0 0.0 0.0 0.0 0.0 0.0
0.3 0.6 0.8 1.2 1.1 0.8 0.8 0.6 0.6 0.4 0.4 0.2 0.1 0.0 0.0 0.0 0.0 0.0 0.0 0.0 0.0 0.0
1.7 1.1 1.5 2.0 2.1 1.7 1.4 1.0 0.6 0.4 0.2 0.0 0.0 0.0 0.1 0.1 0.0 0.0 0.0 0.0 0.0 0.0
2.6 2.2 2.4 2.5 2.2 2.0 1.6 1.2 0.9 0.6 0.6 0.5 0.2 0.4 0.4 0.2 0.3 0.2 0.1 0.0 0.1 0.0
2.0 1.7 1.6 1.5 1.3 1.2 1.1 1.3 1.4 1.4 1.2 1.0 0.6 0.8 1.1 1.3 1.2 0.6 0.4 0.2 0.1 0.0
1.5 1.3 1.3 1.3 1.4 1.6 1.6 1.6 1.2 1.0 1.0 0.8 0.7 0.8 0.9 0.9 0.7 0.5 0.4 0.1 0.0 0.0
1.2 1.3 1.3 1.3 1.3 1.0 1.0 0.9 0.9 0.9 0.7 0.7 0.5 0.5 0.5 0.5 0.2 0.6 0.2 0.1 0.0 0.0
0.9 0.9 0.9 0.9 0.8 0.8 0.8 0.7 0.6 0.6 0.4 0.4 0.3 0.2 0.3 0.4 0.7 0.6 1.7 0.2 0.0 0.0